DateTimeUTC,F1_A11,F1_S11,BsB_S11,BsG_S11,BsR_S11,BbsB_S11,BbsG_S11,BbsR_S11,BaB_A11,BaG_A11,BaR_A11,Tu_S11,T_S11,Uu_S11,U_S11,P_S11,T1_A11
2021-05-30T08:00:00Z,00000200,20000000,,,,,,,0000.15,-000.13,-000.16,17.5,24.4,06.7,04.4,0662.4,30.9
2021-05-30T08:01:00Z,00000200,20000000,,,,,,,-000.08,-000.12,0000.23,17.5,24.4,06.7,04.4,0662.4,30.9
2021-05-30T08:02:00Z,00000200,20000000,,,,,,,0000.02,-000.36,-000.21,17.5,24.4,06.7,04.4,0662.4,31.0
2021-05-30T08:03:00Z,00000200,60000000,,,,,,,0000.38,0000.69,0000.11,17.5,24.4,06.7,04.4,0662.4,31.0
2021-05-30T08:04:00Z,00000200,40000000,0001.58,0001.26,0000.27,0000.02,0000.17,0000.17,0000.31,0000.44,0000.51,17.7,24.2,06.6,04.4,0663.4,31.0
2021-05-30T08:05:00Z,00000200,00000000,0001.54,0001.01,0000.52,0000.51,0000.26,0000.01,0000.23,-000.13,0000.24,17.7,24.1,06.7,04.5,0663.5,31.0
2021-05-30T08:06:00Z,00000200,00000000,0001.37,0001.24,0000.39,-000.12,0000.05,0000.06,0000.57,0000.44,0000.42,17.7,24.1,06.7,04.5,0663.5,31.0
2021-05-30T08:07:00Z,00000200,00000000,0001.60,0001.02,0000.43,0000.47,0000.15,0000.10,0000.22,0000.64,0000.08,17.7,24.1,06.9,04.6,0663.5,31.0
2021-05-30T08:08:00Z,00000200,00000000,0001.27,0001.18,0000.63,0000.14,0000.12,0000.32,0000.04,0000.06,0000.37,17.7,24.1,06.8,04.6,0663.5,31.0
2021-05-30T08:09:00Z,00000200,00000000,0001.70,0000.95,0000.71,0000.45,0000.24,0000.31,0000.34,0000.16,-000.13,17.7,24.1,06.9,04.6,0663.5,31.0
2021-05-30T08:10:00Z,00000200,00000000,0001.13,0000.97,0000.28,0000.02,0000.17,-000.01,0000.12,0000.09,0000.56,17.7,24.1,06.8,04.6,0663.5,31.0
2021-05-30T08:11:00Z,00000200,00000000,0000.93,0001.19,0000.62,0000.14,0000.17,0000.10,0000.19,0000.16,0000.16,17.7,24.1,06.8,04.6,0663.4,31.0
2021-05-30T08:12:00Z,00000200,00000000,0001.50,0001.02,0000.46,0000.16,-000.08,0000.33,0000.57,0000.60,0000.13,17.7,24.1,06.8,04.6,0663.4,31.0
2021-05-30T08:13:00Z,00000200,00000000,0001.25,0001.13,0000.66,0000.80,0000.48,0000.32,0000.50,0000.48,0000.07,17.7,24.1,06.7,04.5,0663.5,31.0
2021-05-30T08:14:00Z,00000200,00000000,0001.90,0001.16,0000.50,0000.34,-000.15,0000.09,0000.07,-000.06,0000.11,17.7,24.1,06.8,04.6,0663.5,31.0
2021-05-30T08:15:00Z,00000200,00000000,0001.93,0001.07,0000.16,0000.30,-000.16,-000.00,-000.04,0000.36,0000.01,17.7,24.1,06.8,04.6,0663.5,31.0
2021-05-30T08:16:00Z,00000200,00000000,0001.73,0001.02,0000.55,0000.15,0000.08,0000.43,0000.42,0000.03,0000.66,17.7,24.1,06.8,04.6,0663.5,31.0
2021-05-30T08:17:00Z,00000200,00000000,0001.26,0000.97,0000.42,0000.16,0000.07,0000.25,0000.48,0000.10,0000.02,17.7,24.0,06.8,04.6,0663.5,31.0
2021-05-30T08:18:00Z,00000200,00000000,0001.75,0001.06,0000.47,-000.03,0000.22,0000.00,0000.14,0000.47,0000.24,17.7,24.1,06.9,04.6,0663.4,31.0
2021-05-30T08:19:00Z,00000200,00000000,0001.79,0000.87,0000.59,-000.54,-000.02,0000.14,0000.35,0000.39,0000.41,17.7,24.0,06.8,04.6,0663.5,30.9
2021-05-30T08:20:00Z,00000200,00000000,0000.86,0000.86,0000.35,-000.15,0000.13,0000.09,0000.41,0000.02,-000.03,17.7,24.0,06.8,04.6,0663.4,30.9
2021-05-30T08:21:00Z,00000200,00000000,0001.90,0001.05,0000.55,0000.15,0000.13,0000.21,-000.02,0000.05,-000.15,17.7,24.0,06.8,04.6,0663.5,31.0
2021-05-30T08:22:00Z,00000200,00000000,0001.33,0001.08,0000.39,0000.52,0000.26,0000.18,0000.40,0000.28,0000.11,17.7,24.0,06.8,04.6,0663.5,31.0
2021-05-30T08:23:00Z,00000200,00000000,0001.63,0000.79,0000.54,0000.11,0000.06,0000.18,-000.13,0000.22,0000.25,17.7,24.0,06.9,04.6,0663.5,31.0
2021-05-30T08:24:00Z,00000200,00000000,0000.99,0001.20,0000.39,0000.13,0000.08,-000.07,0000.48,0000.40,0000.48,17.6,24.0,06.8,04.6,0663.5,31.0
2021-05-30T08:25:00Z,00000200,00000000,0000.85,0001.09,0000.45,0000.44,0000.24,0000.19,0000.41,0000.33,0000.33,17.7,24.0,06.8,04.6,0663.5,30.9
2021-05-30T08:26:00Z,00000200,00000000,0001.74,0001.00,0000.49,0000.18,0000.33,0000.34,0000.24,0000.29,-000.11,17.6,24.0,06.9,04.7,0663.5,30.9
2021-05-30T08:27:00Z,00000200,00000000,0001.71,0000.91,0000.53,0000.45,0000.27,0000.30,0000.32,0000.20,0000.26,17.7,24.0,06.8,04.6,0663.5,30.9
2021-05-30T08:28:00Z,00000200,00000000,0001.57,0001.38,0000.61,0000.38,0000.12,0000.36,0000.35,0000.15,0000.52,17.7,24.0,06.7,04.6,0663.5,31.0
2021-05-30T08:29:00Z,00000200,00000000,0001.49,0001.32,0000.24,0000.08,0000.07,-000.01,-000.11,-000.20,0000.11,17.6,24.0,06.8,04.6,0663.5,31.0
2021-05-30T08:30:00Z,00000200,00000000,0001.24,0001.23,0000.48,0000.18,-000.06,0000.53,0000.36,0000.58,0000.21,17.6,24.0,06.9,04.6,0663.5,31.0
2021-05-30T08:31:00Z,00000200,00000000,0001.62,0001.34,0000.43,0000.41,0000.37,0000.17,0000.18,0000.23,-000.05,17.6,24.0,06.7,04.6,0663.5,31.0
2021-05-30T08:32:00Z,00000200,00000000,0001.69,0001.30,0000.20,-000.12,0000.26,0000.28,0000.57,0000.57,0000.24,17.6,24.0,06.8,04.6,0663.5,31.0
2021-05-30T08:33:00Z,00000200,00000000,0000.85,0001.07,0000.57,0000.97,0000.12,0000.41,-000.07,-000.12,0000.11,17.6,24.0,06.7,04.6,0663.5,31.0
2021-05-30T08:34:00Z,00000200,00000000,0001.42,0000.91,0000.41,0000.52,0000.16,-000.00,0000.39,0000.12,0000.55,17.6,24.0,06.6,04.5,0663.5,31.0
2021-05-30T08:35:00Z,00000200,00000000,0000.79,0000.67,0000.29,0000.77,0000.10,0000.11,-000.38,-000.13,-000.37,17.6,24.0,06.5,04.4,0663.4,31.0
2021-05-30T08:36:00Z,00000200,00000000,0000.85,0000.75,0000.28,0000.48,0000.18,0000.05,0000.48,0000.32,0000.28,17.6,24.0,06.4,04.4,0663.4,31.0
2021-05-30T08:37:00Z,00000200,00000000,0000.60,0000.79,-000.07,0000.59,-000.06,0000.13,0000.28,-000.07,-000.14,17.6,24.0,06.4,04.3,0663.4,31.0
2021-05-30T08:38:00Z,00000200,00000000,0000.97,0000.75,0000.15,0001.04,0000.24,0000.04,-000.03,0000.20,-000.08,17.6,24.0,06.4,04.3,0663.4,31.0
2021-05-30T08:39:00Z,00000200,00000000,0001.22,0001.18,0000.44,0000.69,-000.03,0000.33,-000.72,-000.48,0000.02,17.6,24.0,06.0,04.1,0663.4,31.0
2021-05-30T08:40:00Z,00000200,00000000,0001.13,0000.92,0000.16,0000.06,0000.22,0000.06,-000.24,0000.10,-000.38,17.6,24.0,05.8,03.9,0663.4,30.9
2021-05-30T08:41:00Z,00000200,00000000,0000.99,0001.05,0000.49,0001.02,0000.31,0000.14,0000.38,-000.10,0000.18,17.6,24.0,05.7,03.8,0663.5,30.9
2021-05-30T08:42:00Z,00000200,00000000,0001.10,0001.04,0000.63,-000.08,-000.00,0000.24,-000.16,-000.02,0000.11,17.7,24.0,05.6,03.8,0663.5,30.9
2021-05-30T08:43:00Z,00000200,00000000,0001.17,0001.06,0000.59,0000.27,0000.06,0000.39,-000.13,-000.14,0000.03,17.6,24.0,05.6,03.8,0663.4,31.0
2021-05-30T08:44:00Z,00000200,00000000,0001.30,0000.70,0000.36,0000.22,-000.11,0000.07,0000.24,0000.18,-000.07,17.6,24.0,05.6,03.8,0663.5,31.0
2021-05-30T08:45:00Z,00000200,00000000,0001.55,0001.06,0000.41,0000.23,-000.04,0000.22,0000.22,-000.60,-000.17,17.6,24.0,05.5,03.8,0663.4,31.0
2021-05-30T08:46:00Z,00000200,00000000,0001.51,0001.02,0000.68,0000.23,0000.20,-000.00,-000.27,0000.50,0000.56,17.7,24.0,05.4,03.7,0663.4,31.0
2021-05-30T08:47:00Z,00000200,00000000,0000.65,0001.54,0000.17,-000.04,-000.10,0000.17,-000.04,0000.02,-000.21,17.7,24.0,05.5,03.7,0663.4,31.0
2021-05-30T08:48:00Z,00000200,00000000,0000.94,0000.66,0000.41,0000.25,-000.04,-000.01,-000.26,0000.12,0000.02,17.7,24.0,05.4,03.7,0663.4,31.0
2021-05-30T08:49:00Z,00000200,00000000,0001.92,0000.79,0000.35,0000.24,0000.30,0000.22,0000.46,-000.26,-000.20,17.6,24.0,05.4,03.7,0663.4,31.0
2021-05-30T08:50:00Z,00000200,00000000,0000.93,0001.10,0000.49,0000.45,0000.16,0000.21,0000.16,0000.49,0000.52,17.7,24.0,05.4,03.7,0663.4,31.0
2021-05-30T08:51:00Z,00000200,00000000,0002.10,0001.45,0000.60,0000.17,0000.10,0000.39,-000.44,-000.06,-000.34,17.7,24.0,05.3,03.6,0663.4,31.0
2021-05-30T08:52:00Z,00000200,00000000,0001.17,0001.09,0000.22,0000.94,0000.04,-000.00,0000.66,0000.60,0000.33,17.7,24.0,05.4,03.7,0663.4,31.0
2021-05-30T08:53:00Z,00000200,00000000,0000.71,0001.18,0000.41,0000.40,0000.06,0000.56,0000.32,-000.06,0000.38,17.7,24.0,05.4,03.7,0663.4,31.0
2021-05-30T08:54:00Z,00000200,00000000,0001.11,0001.13,0000.29,0000.41,0000.23,0000.00,-000.32,-000.33,-000.24,17.7,24.0,05.3,03.6,0663.4,31.0
2021-05-30T08:55:00Z,00000200,00000000,0001.53,0001.04,0000.48,0000.58,-000.07,0000.14,0000.21,0000.31,0000.22,17.7,24.0,05.3,03.6,0663.4,31.0
2021-05-30T08:56:00Z,00000200,00000000,0001.69,0001.34,0000.50,0000.16,0000.05,-000.10,-000.02,-000.08,0000.30,17.7,24.0,05.4,03.6,0663.4,31.0
2021-05-30T08:57:00Z,00000200,40000000,,,,,,,0000.26,0000.55,0000.06,17.8,24.0,04.8,03.3,0663.4,31.0
2021-05-30T08:58:00Z,00000200,60000000,,,,,,,-000.14,-000.53,-000.18,17.4,24.1,05.7,03.8,0662.4,31.0
2021-05-30T08:59:00Z,00000200,20000000,,,,,,,-000.32,-000.06,-000.01,17.4,24.2,05.6,03.7,0662.3,31.0
